Stündliche Wetter Bolshie Dvorcy

Heute, 11 April, Sonntag

Zeit Temperatur Niederschläge Wind Luftdruck Luftfeuchtigkeit
00:00 +7°C° 0 mm 3 m/S 753 mmHg 77%
01:00 +5°C° 0 mm 3 m/S 753 mmHg 79%
02:00 +5°C° 0 mm 3 m/S 753 mmHg 81%
03:00 +5°C° 0 mm 3 m/S 754 mmHg 82%
04:00 +4°C° 0 mm 3 m/S 754 mmHg 83%
05:00 +4°C° 0 mm 3 m/S 754 mmHg 84%
06:00 +5°C° 0 mm 3 m/S 754 mmHg 78%
07:00 +7°C° 0 mm 4 m/S 755 mmHg 72%
08:00 +8°C° 0 mm 4 m/S 755 mmHg 66%
09:00 +11°C° 0 mm 4 m/S 755 mmHg 59%
10:00 +13°C° 0 mm 4 m/S 755 mmHg 53%
11:00 +14°C° 0 mm 4 m/S 755 mmHg 47%
12:00 +15°C° 0 mm 5 m/S 755 mmHg 44%
13:00 +15°C° 0 mm 5 m/S 755 mmHg 41%
14:00 +16°C° 0 mm 5 m/S 755 mmHg 38%
15:00 +16°C° 0 mm 5 m/S 755 mmHg 39%
16:00 +15°C° 0 mm 5 m/S 755 mmHg 41%
17:00 +15°C° 0 mm 4 m/S 755 mmHg 42%
18:00 +13°C° 0 mm 4 m/S 755 mmHg 48%
19:00 +11°C° 0 mm 4 m/S 755 mmHg 54%
20:00 +10°C° 0 mm 3 m/S 755 mmHg 59%
21:00 +8°C° 0 mm 4 m/S 756 mmHg 61%
22:00 +7°C° 0 mm 4 m/S 756 mmHg 62%
23:00 +7°C° 0 mm 4 m/S 756 mmHg 64%

Morgen, 12 April, Montag

Zeit Temperatur Niederschläge Wind Luftdruck Luftfeuchtigkeit
00:00 +6°C° 0 mm 4 m/S 756 mmHg 65%
01:00 +6°C° 0 mm 4 m/S 756 mmHg 66%
02:00 +5°C° 0 mm 4 m/S 756 mmHg 67%
03:00 +5°C° 0 mm 4 m/S 755 mmHg 68%
04:00 +4°C° 0 mm 4 m/S 755 mmHg 69%
05:00 +4°C° 0 mm 4 m/S 755 mmHg 70%
06:00 +5°C° 0 mm 4 m/S 755 mmHg 66%
07:00 +6°C° 0 mm 4 m/S 755 mmHg 62%
08:00 +7°C° 0 mm 5 m/S 755 mmHg 58%
09:00 +9°C° 0 mm 5 m/S 755 mmHg 52%
10:00 +12°C° 0 mm 5 m/S 754 mmHg 46%
11:00 +14°C° 0 mm 6 m/S 754 mmHg 40%
12:00 +14°C° 0 mm 5 m/S 754 mmHg 39%
13:00 +15°C° 0 mm 5 m/S 753 mmHg 37%
14:00 +17°C° 0 mm 4 m/S 753 mmHg 36%
15:00 +17°C° 0 mm 4 m/S 753 mmHg 38%
16:00 +17°C° 0 mm 4 m/S 752 mmHg 41%
17:00 +16°C° 0 mm 3 m/S 752 mmHg 43%
18:00 +14°C° 0 mm 3 m/S 752 mmHg 47%
19:00 +12°C° 0 mm 3 m/S 752 mmHg 51%
20:00 +11°C° 0 mm 3 m/S 752 mmHg 55%
21:00 +10°C° 0 mm 3 m/S 752 mmHg 57%
22:00 +9°C° 0 mm 3 m/S 752 mmHg 59%
23:00 +9°C° 0 mm 3 m/S 752 mmHg 61%

übermorgen, 13 April, Dienstag

Zeit Temperatur Niederschläge Wind Luftdruck Luftfeuchtigkeit
00:00 +9°C° 0 mm 3 m/S 752 mmHg 62%
01:00 +9°C° 0 mm 2 m/S 752 mmHg 63%
02:00 +9°C° 0 mm 2 m/S 752 mmHg 64%
03:00 +8°C° 0 mm 2 m/S 752 mmHg 65%
04:00 +8°C° 0 mm 2 m/S 752 mmHg 66%
05:00 +9°C° 0 mm 1 m/S 752 mmHg 67%
06:00 +10°C° 0 mm 1 m/S 752 mmHg 66%
07:00 +11°C° 0 mm 1 m/S 752 mmHg 65%
08:00 +11°C° 0 mm 1 m/S 752 mmHg 65%
09:00 +12°C° 0 mm 1 m/S 752 mmHg 61%
10:00 +12°C° 0 mm 0 m/S 752 mmHg 58%
11:00 +13°C° 0 mm 0 m/S 752 mmHg 54%
12:00 +15°C° 0 mm 1 m/S 752 mmHg 53%
13:00 +16°C° 0 mm 1 m/S 752 mmHg 51%
14:00 +17°C° 0 mm 2 m/S 751 mmHg 50%
15:00 +16°C° 0 mm 3 m/S 751 mmHg 53%
16:00 +16°C° 0 mm 3 m/S 751 mmHg 57%
17:00 +15°C° 0 mm 4 m/S 750 mmHg 61%
18:00 +13°C° 0 mm 4 m/S 751 mmHg 68%
19:00 +10°C° 0 mm 5 m/S 751 mmHg 75%
20:00 +9°C° 0 mm 5 m/S 751 mmHg 83%
21:00 +8°C° 0 mm 5 m/S 750 mmHg 84%
22:00 +7°C° 0 mm 5 m/S 750 mmHg 86%
23:00 +7°C° 0 mm 5 m/S 750 mmHg 87%

14 April, Mittwoch

Zeit Temperatur Niederschläge Wind Luftdruck Luftfeuchtigkeit
00:00 +6°C° 0.5 mm 5 m/S 749 mmHg 88%
01:00 +6°C° 0.5 mm 5 m/S 749 mmHg 89%
02:00 +6°C° 0.5 mm 5 m/S 749 mmHg 90%
03:00 +5°C° 1.3 mm 5 m/S 748 mmHg 92%
04:00 +5°C° 1.3 mm 5 m/S 748 mmHg 93%
05:00 +5°C° 1.3 mm 5 m/S 748 mmHg 94%
06:00 +5°C° 1.2 mm 5 m/S 748 mmHg 95%
07:00 +5°C° 1.2 mm 5 m/S 748 mmHg 95%
08:00 +5°C° 1.2 mm 5 m/S 747 mmHg 95%
09:00 +5°C° 0.7 mm 5 m/S 747 mmHg 95%
10:00 +6°C° 0.7 mm 4 m/S 747 mmHg 95%
11:00 +6°C° 0.7 mm 4 m/S 747 mmHg 95%
12:00 +7°C° 0.1 mm 3 m/S 747 mmHg 94%
13:00 +8°C° 0.1 mm 3 m/S 747 mmHg 92%
14:00 +8°C° 0.1 mm 3 m/S 747 mmHg 91%
15:00 +8°C° 0 mm 2 m/S 747 mmHg 91%
16:00 +9°C° 0 mm 1 m/S 747 mmHg 90%
17:00 +9°C° 0 mm 1 m/S 747 mmHg 90%
18:00 +9°C° 0 mm 1 m/S 748 mmHg 91%
19:00 +9°C° 0 mm 1 m/S 748 mmHg 92%
20:00 +9°C° 0 mm 1 m/S 748 mmHg 93%
21:00 +9°C° 0 mm 1 m/S 748 mmHg 93%
22:00 +9°C° 0 mm 1 m/S 748 mmHg 94%
23:00 +9°C° 0 mm 1 m/S 748 mmHg 94%

15 April, Donnerstag

Zeit Temperatur Niederschläge Wind Luftdruck Luftfeuchtigkeit
00:00 +9°C° 0 mm 1 m/S 748 mmHg 94%
01:00 +9°C° 0 mm 1 m/S 748 mmHg 94%
02:00 +8°C° 0 mm 1 m/S 748 mmHg 94%
03:00 +8°C° 0 mm 1 m/S 748 mmHg 95%
04:00 +7°C° 0 mm 2 m/S 748 mmHg 95%
05:00 +7°C° 0 mm 2 m/S 748 mmHg 95%
06:00 +7°C° 0.1 mm 2 m/S 748 mmHg 94%
07:00 +8°C° 0.1 mm 2 m/S 748 mmHg 93%
08:00 +8°C° 0.1 mm 3 m/S 749 mmHg 92%
09:00 +9°C° 0.3 mm 3 m/S 749 mmHg 90%
10:00 +9°C° 0.3 mm 3 m/S 749 mmHg 88%
11:00 +8°C° 0.3 mm 4 m/S 749 mmHg 86%
12:00 +7°C° 0.5 mm 4 m/S 749 mmHg 88%
13:00 +6°C° 0.5 mm 4 m/S 749 mmHg 90%
14:00 +5°C° 0.5 mm 4 m/S 749 mmHg 92%
15:00 +5°C° 0.2 mm 4 m/S 749 mmHg 92%
16:00 +5°C° 0.2 mm 4 m/S 749 mmHg 93%
17:00 +5°C° 0.2 mm 4 m/S 749 mmHg 93%
18:00 +5°C° 0.1 mm 4 m/S 750 mmHg 93%
19:00 +5°C° 0.1 mm 4 m/S 750 mmHg 93%
20:00 +6°C° 0.1 mm 5 m/S 750 mmHg 93%
21:00 +5°C° 0 mm 4 m/S 750 mmHg 93%
22:00 +5°C° 0 mm 4 m/S 750 mmHg 92%
23:00 +5°C° 0 mm 4 m/S 750 mmHg 92%

16 April, Freitag

Zeit Temperatur Niederschläge Wind Luftdruck Luftfeuchtigkeit
00:00 +4°C° 0 mm 4 m/S 750 mmHg 92%
01:00 +4°C° 0 mm 4 m/S 750 mmHg 92%
02:00 +3°C° 0 mm 5 m/S 750 mmHg 92%
03:00 +4°C° 0 mm 4 m/S 750 mmHg 93%
04:00 +4°C° 0 mm 4 m/S 750 mmHg 93%
05:00 +4°C° 0 mm 4 m/S 750 mmHg 93%
06:00 +3°C° 0.1 mm 5 m/S 751 mmHg 93%
07:00 +5°C° 0.1 mm 5 m/S 751 mmHg 93%
08:00 +5°C° 0.1 mm 5 m/S 751 mmHg 93%
09:00 +5°C° 0 mm 5 m/S 752 mmHg 91%
10:00 +6°C° 0 mm 5 m/S 752 mmHg 89%
11:00 +5°C° 0 mm 6 m/S 752 mmHg 88%
12:00 +5°C° 0 mm 6 m/S 753 mmHg 86%
13:00 +5°C° 0 mm 6 m/S 753 mmHg 84%
14:00 +5°C° 0 mm 7 m/S 754 mmHg 83%
15:00 +4°C° 0.2 mm 6 m/S 754 mmHg 85%
16:00 +3°C° 0.2 mm 6 m/S 754 mmHg 88%
17:00 +2°C° 0.2 mm 6 m/S 755 mmHg 91%
18:00 +3°C° 0 mm 5 m/S 755 mmHg 86%
19:00 +3°C° 0 mm 5 m/S 755 mmHg 82%
20:00 +5°C° 0 mm 5 m/S 756 mmHg 77%
21:00 +5°C° 0 mm 5 m/S 756 mmHg 76%
22:00 +5°C° 0 mm 5 m/S 756 mmHg 76%
23:00 +5°C° 0 mm 4 m/S 757 mmHg 75%
Mehr zeigen

Wir brauchen deine Erlaubnis

Meteoprog und unser Service Anbieter werden persönliche Daten aufbewahren, so wie Cookies, Geräte Bezeichnung oder ähnliche Technologien von deinem Gerät und Prozess, so wie Persönliche Daten Inhalte und Werbungen, genauso wie social Media und den Verkehr zu analysieren.

  • Aufbewahrung und/oder Zugang zu deiner Geräte Informationen.

    Cookies, Geräte Bezeichnung oder andere Informationen, können aufbewahrt oder Zugang zu deinem Gerät erhalten, für den Grund, der oben angegeben wird.

  • Personalisierte Werbung und Inhalte, Messungen, Einblick in das Publikum und Produkt Entwicklung.

    Werbungen und Inhalte können personalisiert werden, basierend auf ein Profil. Mehr Daten können besser personalisierte Werbungen und Inhalte hinzufügen. Werbung und Inhalte können gezeigt und gemessen werden. Einblicke über das Publikum, welche die Werbung gesehen haben und den Inhalt, können abgeleitet werden. So wie Daten können genutzt werden, um es zu verbessern oder die Benutzer Erfahrung zu verbessern das System und die Software.

Wenn du “Ich stimme zu” klickst, erlaubst du uns, die Cookies zu benutzen die Geräte Bezeichnung, den Web oder ähnliche Technologien zu benutzen. Deine Settings, können in deinem Gerät bei deinem Browser geändert werden.

Für den bestimmten Zweck, berechtigten Interessen beruhen darauf, mehr als auf den Inhalt. Du kannst mehr darüber in unseren Privaten und Cookie Politik lesen.